SUS67A EFIV-ENTC

Flight info

Callsign SUS67A
Flight time 0h 45m
Altitude 36000
Route LUSAG DCT UVMOK DCT AGANI DCT KIIKA
Aircraft A319/M-SDE3FGHIRWY/LB1

Departure

Time 2026-04-22 14:10
Airport Ivalo Airport (EFIV)

Arrival

Time 2026-04-22 14:55
Airport Tromsø Airport (ENTC)
Time Latitude Longitude Altitude Speed Heading
2026-04-22 13:58 68.60911 27.41960 492 ft 0 kts 172°
2026-04-22 14:03 68.60912 27.41959 492 ft 1 kts 172°
2026-04-22 14:03 68.60918 27.41968 492 ft 3 kts 121°
2026-04-22 14:03 68.60929 27.41946 483 ft 3 kts 161°
2026-04-22 14:04 68.60946 27.41923 486 ft 3 kts 118°
2026-04-22 14:04 68.60948 27.41876 487 ft 3 kts 76°
2026-04-22 14:04 68.60944 27.41822 483 ft 3 kts 76°
2026-04-22 14:04 68.60941 27.41797 484 ft 0 kts 76°
2026-04-22 14:06 68.60941 27.41801 483 ft 0 kts 91°
2026-04-22 14:06 68.60934 27.41801 483 ft 1 kts 169°
2026-04-22 14:06 68.60892 27.41686 488 ft 15 kts 223°
2026-04-22 14:06 68.60811 27.41445 492 ft 19 kts 230°
2026-04-22 14:07 68.60715 27.41163 487 ft 22 kts 224°
2026-04-22 14:07 68.60625 27.40821 491 ft 23 kts 263°
2026-04-22 14:07 68.60636 27.40360 496 ft 25 kts 273°
2026-04-22 14:07 68.60541 27.40000 500 ft 25 kts 225°
2026-04-22 14:08 68.60415 27.39607 491 ft 32 kts 226°
2026-04-22 14:08 68.60249 27.39118 499 ft 37 kts 227°
2026-04-22 14:08 68.60073 27.38593 491 ft 29 kts 227°
2026-04-22 14:08 68.59904 27.38474 486 ft 27 kts 177°
2026-04-22 14:09 68.59851 27.38368 491 ft 6 kts 311°
2026-04-22 14:09 68.59927 27.38341 487 ft 15 kts
2026-04-22 14:09 68.60017 27.38435 483 ft 0 kts 46°
2026-04-22 14:09 68.60100 27.38678 494 ft 48 kts 47°
2026-04-22 14:10 68.60486 27.39802 500 ft 112 kts 46°
2026-04-22 14:10 68.61106 27.41643 825 ft 134 kts 44°
2026-04-22 14:10 68.61715 27.43516 1649 ft 130 kts 38°
2026-04-22 14:10 68.62368 27.45426 2229 ft 147 kts 37°
2026-04-22 14:11 68.63125 27.47525 2804 ft 162 kts 37°
2026-04-22 14:11 68.63935 27.49868 3530 ft 170 kts 39°
2026-04-22 14:11 68.64732 27.52220 4538 ft 166 kts 39°
2026-04-22 14:11 68.65514 27.54545 5432 ft 168 kts 39°
2026-04-22 14:12 68.66334 27.56818 6294 ft 166 kts 30°
2026-04-22 14:12 68.67397 27.57746 7076 ft 162 kts 358°
2026-04-22 14:12 68.68506 27.56733 7674 ft 186 kts 328°
2026-04-22 14:12 68.69492 27.54176 8433 ft 199 kts 322°
2026-04-22 14:13 68.70500 27.51525 9513 ft 201 kts 323°
2026-04-22 14:13 68.71522 27.48865 10547 ft 203 kts 324°
2026-04-22 14:13 68.72347 27.45580 11474 ft 225 kts 296°
2026-04-22 14:13 68.72297 27.40955 12211 ft 269 kts 262°
2026-04-22 14:14 68.71322 27.36103 12645 ft 310 kts 240°
2026-04-22 14:14 68.69819 27.31441 13004 ft 340 kts 231°
2026-04-22 14:14 68.68033 27.26793 13331 ft 366 kts 228°
2026-04-22 14:14 68.66110 27.21966 13849 ft 380 kts 229°
2026-04-22 14:15 68.64170 27.16959 14483 ft 387 kts 230°
2026-04-22 14:15 68.62240 27.11748 15149 ft 392 kts 233°
2026-04-22 14:15 68.60326 27.06343 15816 ft 398 kts 234°
2026-04-22 14:15 68.58415 27.00781 16475 ft 404 kts 236°
2026-04-22 14:16 68.56482 26.95102 17127 ft 411 kts 236°
2026-04-22 14:16 68.54527 26.89325 17768 ft 416 kts 239°
2026-04-22 14:16 68.52954 26.82885 18333 ft 400 kts 257°
2026-04-22 14:16 68.52135 26.75842 18902 ft 380 kts 275°
2026-04-22 14:17 68.52046 26.68862 19504 ft 358 kts 291°
2026-04-22 14:17 68.52571 26.62428 20140 ft 339 kts 304°
2026-04-22 14:17 68.53570 26.56693 20823 ft 328 kts 312°
2026-04-22 14:17 68.54646 26.51271 21501 ft 330 kts 312°
2026-04-22 14:18 68.55739 26.45736 22170 ft 332 kts 312°
2026-04-22 14:18 68.56834 26.40159 22823 ft 334 kts 312°
2026-04-22 14:18 68.57930 26.34534 23428 ft 336 kts 312°
2026-04-22 14:18 68.59036 26.28859 23923 ft 338 kts 312°
2026-04-22 14:19 68.60161 26.23082 24413 ft 341 kts 312°
2026-04-22 14:19 68.61275 26.17338 24885 ft 343 kts 312°
2026-04-22 14:19 68.62391 26.11534 25346 ft 345 kts 311°
2026-04-22 14:19 68.63511 26.05697 25817 ft 347 kts 311°
2026-04-22 14:20 68.65770 25.93894 26757 ft 351 kts 311°
2026-04-22 14:20 68.66908 25.87930 27243 ft 354 kts 311°
2026-04-22 14:20 68.68050 25.81927 27690 ft 356 kts 311°
2026-04-22 14:21 68.70354 25.69798 28589 ft 360 kts 310°
2026-04-22 14:21 68.71496 25.63755 29013 ft 362 kts 310°
2026-04-22 14:22 68.73837 25.51271 29855 ft 367 kts 310°
2026-04-22 14:22 68.75007 25.45007 30212 ft 369 kts 310°
2026-04-22 14:22 68.77368 25.32323 30808 ft 375 kts 309°
2026-04-22 14:23 68.78556 25.25876 31084 ft 378 kts 309°
2026-04-22 14:23 68.79751 25.19380 31373 ft 381 kts 309°
2026-04-22 14:23 68.81091 25.13164 31680 ft 373 kts 315°
2026-04-22 14:23 68.82551 25.07238 32081 ft 373 kts 315°
2026-04-22 14:24 68.84010 25.01306 32474 ft 373 kts 315°
2026-04-22 14:24 68.85468 24.95361 32870 ft 373 kts 315°
2026-04-22 14:24 68.86923 24.89385 33266 ft 374 kts 315°
2026-04-22 14:24 68.88373 24.83408 33670 ft 374 kts 315°
2026-04-22 14:25 68.89826 24.77404 34054 ft 375 kts 315°
2026-04-22 14:25 68.91281 24.71399 34394 ft 375 kts 315°
2026-04-22 14:25 68.92739 24.65378 34710 ft 377 kts 314°
2026-04-22 14:25 68.94197 24.59324 35010 ft 378 kts 314°
2026-04-22 14:26 68.95660 24.53221 35311 ft 379 kts 314°
2026-04-22 14:26 68.97122 24.47090 35611 ft 381 kts 313°
2026-04-22 14:26 68.98584 24.40937 35890 ft 382 kts 313°
2026-04-22 14:27 69.01501 24.28594 35982 ft 379 kts 313°
2026-04-22 14:27 69.04393 24.16308 35993 ft 378 kts 313°
2026-04-22 14:28 69.07271 24.04057 35985 ft 376 kts 312°
2026-04-22 14:28 69.10134 23.91804 35989 ft 376 kts 312°
2026-04-22 14:29 69.12978 23.79520 35981 ft 376 kts 312°
2026-04-22 14:29 69.15821 23.67204 35973 ft 376 kts 311°
2026-04-22 14:30 69.18657 23.54849 35968 ft 376 kts 311°
2026-04-22 14:30 69.21480 23.42462 35961 ft 376 kts 311°
2026-04-22 14:31 69.24302 23.30040 35959 ft 376 kts 311°
2026-04-22 14:31 69.27116 23.17582 35959 ft 377 kts 310°
2026-04-22 14:32 69.29918 23.05069 35956 ft 377 kts 310°
2026-04-22 14:32 69.32708 22.92502 35954 ft 377 kts 310°
2026-04-22 14:33 69.35026 22.82017 35958 ft 378 kts 310°
2026-04-22 14:33 69.37813 22.69355 35960 ft 379 kts 310°
2026-04-22 14:34 69.40598 22.56652 35960 ft 380 kts 309°
2026-04-22 14:34 69.43384 22.43870 35928 ft 382 kts 309°
2026-04-22 14:34 69.44788 22.37423 35358 ft 385 kts 309°
2026-04-22 14:35 69.46201 22.30910 34633 ft 389 kts 309°
2026-04-22 14:35 69.47622 22.24322 33906 ft 391 kts 309°
2026-04-22 14:35 69.49042 22.17701 33104 ft 391 kts 309°
2026-04-22 14:35 69.50458 22.11079 32288 ft 392 kts 309°
2026-04-22 14:36 69.51868 22.04456 31755 ft 386 kts 309°
2026-04-22 14:36 69.53242 21.97956 31289 ft 379 kts 309°
2026-04-22 14:36 69.54592 21.91555 30808 ft 374 kts 309°
2026-04-22 14:36 69.55923 21.85234 30330 ft 368 kts 309°
2026-04-22 14:37 69.57234 21.79006 29815 ft 362 kts 309°
2026-04-22 14:37 69.58522 21.72874 29339 ft 356 kts 309°
2026-04-22 14:37 69.59786 21.66852 28878 ft 350 kts 310°
2026-04-22 14:37 69.61025 21.60937 28422 ft 343 kts 310°
2026-04-22 14:38 69.62241 21.55121 27982 ft 337 kts 310°
2026-04-22 14:38 69.63438 21.49381 27544 ft 332 kts 310°
2026-04-22 14:38 69.64614 21.43723 27113 ft 328 kts 310°
2026-04-22 14:38 69.65772 21.38114 26690 ft 324 kts 310°
2026-04-22 14:39 69.66915 21.32564 26237 ft 321 kts 310°
2026-04-22 14:39 69.68051 21.27043 25761 ft 319 kts 310°
2026-04-22 14:39 69.69232 21.21685 25286 ft 316 kts 313°
2026-04-22 14:40 69.71718 21.11411 24381 ft 310 kts 314°
2026-04-22 14:40 69.72915 21.06225 23953 ft 315 kts 308°
2026-04-22 14:40 69.73669 21.00155 23473 ft 332 kts 293°
2026-04-22 14:40 69.73748 20.93288 22969 ft 356 kts 276°
2026-04-22 14:41 69.73018 20.86236 22483 ft 379 kts 258°
2026-04-22 14:41 69.71844 20.79409 21938 ft 380 kts 256°
2026-04-22 14:41 69.70654 20.72606 21426 ft 378 kts 256°
2026-04-22 14:41 69.69471 20.65861 20865 ft 376 kts 256°
2026-04-22 14:42 69.68296 20.59153 20332 ft 376 kts 256°
2026-04-22 14:42 69.67123 20.52453 19763 ft 374 kts 256°
2026-04-22 14:42 69.65952 20.45755 19193 ft 375 kts 256°
2026-04-22 14:42 69.64765 20.38968 18608 ft 375 kts 256°
2026-04-22 14:43 69.63591 20.32285 17979 ft 375 kts 256°
2026-04-22 14:43 69.62414 20.25621 17386 ft 373 kts 256°
2026-04-22 14:43 69.61256 20.19106 16816 ft 371 kts 256°
2026-04-22 14:43 69.60066 20.12461 16224 ft 369 kts 255°
2026-04-22 14:44 69.58913 20.06044 15676 ft 365 kts 255°
2026-04-22 14:44 69.57740 19.99487 15117 ft 364 kts 255°
2026-04-22 14:44 69.56602 19.93105 14603 ft 366 kts 255°
2026-04-22 14:44 69.55446 19.86644 14080 ft 364 kts 255°
2026-04-22 14:45 69.54289 19.80225 13519 ft 363 kts 254°
2026-04-22 14:45 69.53129 19.73843 12988 ft 360 kts 253°
2026-04-22 14:45 69.51976 19.67538 12467 ft 356 kts 253°
2026-04-22 14:45 69.50837 19.61305 11951 ft 351 kts 252°
2026-04-22 14:46 69.49700 19.55086 11433 ft 348 kts 251°
2026-04-22 14:46 69.48585 19.49007 10927 ft 343 kts 250°
2026-04-22 14:46 69.47485 19.43038 10455 ft 338 kts 250°
2026-04-22 14:46 69.46428 19.37338 10313 ft 322 kts 250°
2026-04-22 14:47 69.45386 19.31732 10168 ft 311 kts 250°
2026-04-22 14:47 69.44394 19.26397 9873 ft 301 kts 250°
2026-04-22 14:47 69.43425 19.21192 9548 ft 296 kts 250°
2026-04-22 14:47 69.42465 19.16000 9108 ft 300 kts 250°
2026-04-22 14:48 69.41493 19.10785 8959 ft 290 kts 250°
2026-04-22 14:48 69.40821 19.05710 8816 ft 268 kts 268°
2026-04-22 14:48 69.40742 19.00596 8682 ft 246 kts 285°
2026-04-22 14:48 69.41147 18.96126 8536 ft 229 kts 300°
2026-04-22 14:49 69.41881 18.92209 8329 ft 223 kts 306°
2026-04-22 14:49 69.42668 18.88273 7773 ft 233 kts 306°
2026-04-22 14:49 69.43485 18.84166 7108 ft 245 kts 305°
2026-04-22 14:49 69.44422 18.79992 6434 ft 254 kts 316°
2026-04-22 14:50 69.45959 18.77675 5824 ft 255 kts 350°
2026-04-22 14:50 69.47726 18.78125 5288 ft 258 kts 10°
2026-04-22 14:50 69.49487 18.79253 4813 ft 259 kts 12°
2026-04-22 14:50 69.51229 18.80443 4293 ft 259 kts 12°
2026-04-22 14:51 69.52983 18.81648 3841 ft 255 kts 11°
2026-04-22 14:51 69.54597 18.82756 3708 ft 221 kts 11°
2026-04-22 14:51 69.55991 18.83710 3148 ft 193 kts 11°
2026-04-22 14:51 69.57150 18.84496 3009 ft 152 kts 10°
2026-04-22 14:52 69.58079 18.85123 2998 ft 124 kts
2026-04-22 14:52 69.58882 18.85654 2999 ft 115 kts
2026-04-22 14:52 69.59649 18.86156 3006 ft 112 kts
2026-04-22 14:52 69.60403 18.86652 3007 ft 111 kts
2026-04-22 14:53 69.61225 18.87205 2292 ft 135 kts
2026-04-22 14:53 69.62157 18.87858 1625 ft 140 kts
2026-04-22 14:53 69.63056 18.88424 1261 ft 128 kts
2026-04-22 14:53 69.63884 18.88959 995 ft 117 kts
2026-04-22 14:54 69.64677 18.89475 772 ft 114 kts
2026-04-22 14:54 69.65452 18.89983 569 ft 114 kts
2026-04-22 14:54 69.66208 18.90476 333 ft 113 kts
2026-04-22 14:54 69.66977 18.90987 140 ft 111 kts 10°
2026-04-22 14:55 69.67703 18.91473 43 ft 99 kts 10°
2026-04-22 14:55 69.68249 18.91835 32 ft 50 kts 13°
2026-04-22 14:55 69.68449 18.91964 29 ft 20 kts 12°
2026-04-22 14:55 69.68620 18.92076 24 ft 31 kts 13°
2026-04-22 14:56 69.68760 18.92037 20 ft 13 kts 274°
2026-04-22 14:56 69.68763 18.91712 20 ft 23 kts 226°
2026-04-22 14:56 69.68593 18.91597 23 ft 26 kts 193°
2026-04-22 14:56 69.68412 18.91503 26 ft 28 kts 179°
2026-04-22 14:57 69.68214 18.91421 31 ft 29 kts 193°
2026-04-22 14:57 69.68012 18.91288 35 ft 28 kts 192°
2026-04-22 14:57 69.67959 18.91135 49 ft 6 kts 293°
2026-04-22 14:57 69.67968 18.91095 35 ft 1 kts 324°
2026-04-22 14:58 69.68015 18.91205 42 ft 12 kts 17°
2026-04-22 14:58 69.68057 18.91179 33 ft 4 kts 225°
2026-04-22 14:58 69.68044 18.91050 35 ft 10 kts 286°
2026-04-22 14:58 69.68052 18.90965 34 ft 0 kts 283°
2026-04-22 15:03 69.68052 18.90966 34 ft 0 kts 283°